ZHONGXING-10R

Last updated on Tue Sep 22 2026 00:03:16 GMT+0000 (Coordinated Universal Time)

1 63075U 25036A 26264.58223777 -.00000356 00000+0 00000+0 0 9991 2 63075 0.0711 251.0537 0004980 288.5830 140.9672 1.00274096 5924
UTC large
Height (km)
Speed (km/s)
/
Latitude / Longitude
Inclination (degrees)
Orbital Period (minutes)
Azimuth
Elevation
Range (km)
Doppler Factor

Next 0 passes for location: London (51.5072 / 0.1276)

No passes found over London.
ZHONGXING-10R